This is the latest recevied weather packets stored in our database for station/object KC2GYU. If no packets are shown the sender has not sent any weather packets the latest 10 day(s).
| Time | Temp. | Humidity | Pressure | Rain* | Wind** | Luminosity | Snow |
|---|---|---|---|---|---|---|---|
| 1777418835 | 12.22° C | 72% | 1019.5 hPa | 0 mm | - | 6 W/m² | - |
| 1777418531 | 12.22° C | 72% | 1019.6 hPa | 0 mm | - | 7 W/m² | - |
| 1777418229 | 12.22° C | 73% | 1019.6 hPa | 0 mm | - | 9 W/m² | - |
| 1777417929 | 12.22° C | 73% | 1019.6 hPa | 0 mm | - | 8 W/m² | - |
| 1777417625 | 12.22° C | 72% | 1019.4 hPa | 0 mm | - | 11 W/m² | - |
| 1777417321 | 12.78° C | 71% | 1019.7 hPa | 0 mm | - | 13 W/m² | - |
| 1777417017 | 12.78° C | 71% | 1019.7 hPa | 0 mm | - | 14 W/m² | - |
| 1777416712 | 12.78° C | 70% | 1019.8 hPa | 0 mm | - | 14 W/m² | - |
| 1777416409 | 12.78° C | 70% | 1019.3 hPa | 0 mm | - | 22 W/m² | - |
| 1777416104 | 12.78° C | 70% | 1019.4 hPa | 0 mm | - | 23 W/m² | - |
| 1777415798 | 12.78° C | 70% | 1019.2 hPa | 0 mm | - | 52 W/m² | - |
| 1777415495 | 12.78° C | 69% | 1019.4 hPa | 0 mm | - | 34 W/m² | - |
| 1777415190 | 12.78° C | 69% | 1019.5 hPa | 0 mm | - | 35 W/m² | - |
| 1777414886 | 12.78° C | 68% | 1019.4 hPa | 0 mm | - | 34 W/m² | - |
| 1777414585 | 13.33° C | 68% | 1019.6 hPa | 0 mm | - | 43 W/m² | - |
| 1777414280 | 13.33° C | 68% | 1019.4 hPa | 0 mm | - | 68 W/m² | - |
| 1777413975 | 13.33° C | 68% | 1019.5 hPa | 0 mm | - | 74 W/m² | - |
| 1777413670 | 13.33° C | 70% | 1019.5 hPa | 0 mm | - | 67 W/m² | - |
| 1777413367 | 13.33° C | 69% | 1019.5 hPa | 0 mm | - | 89 W/m² | - |
| 1777413063 | 13.33° C | 70% | 1019.4 hPa | 0 mm | - | 95 W/m² | - |
| 1777412757 | 13.33° C | 73% | 1019.5 hPa | 0 mm | - | 98 W/m² | - |
| 1777412450 | 13.33° C | 73% | 1019.6 hPa | 0 mm | - | 68 W/m² | - |
| 1777412149 | 13.33° C | 73% | 1019.5 hPa | 0 mm | - | 58 W/m² | - |
| 1777411845 | 13.89° C | 73% | 1019.8 hPa | 0 mm | - | 90 W/m² | - |
| 1777411543 | 13.89° C | 73% | 1019.5 hPa | 0 mm | - | 135 W/m² | - |
* Rain latest hour (hover to see other rain measurements)
** Current wind speed in m/s (hover to see current wind gust speed)